Вернуться в каталог

STARLINK-37989

АктивенСвязьSSO
NORAD 69718·PAYLOAD·🇺🇸 United States

Запущен Jun 28, 2026 с Vandenberg Space Force Base

Loading…

Ближайшие Пролёты (ближайшие 24 часа)

TLE

СвежийSource: CelesTrak SupGP

Эпоха: Sep 15, 2026, 04:41 UTC

1 69718C 26147Q   26258.19562500 -.00086907  00000+0 -27005-2 0  2587
2 69718  97.2835 294.6461 0000798  82.4739 213.7098 15.33451751    12

Отслеживайте STARLINK-37989 в реальном времени с AllMySat

Download on the App Store